Regional Weather Roundup
Issued by NWS

Home | Current Version | Previous Version | Graphics & Text | Print | Product List | Glossary On
Versions: 1 2 3 4 5 6 7 8 9 10 11 12 13 14 15 16 17 18 19 20 21 22 23 24 25 26 27 28 29 30 31 32 33 34 35 36 37 38 39 40 41 42 43 44 45 46 47 48 49 50
000
ASUS43 KIND 201109
RWRIN

WEATHER ROUNDUP FOR INDIANA
NATIONAL WEATHER SERVICE INDIANAPOLIS IN
700 AM EDT SUN MAY 20 2018

NOTE: "FAIR" INDICATES FEW OR NO CLOUDS BELOW 12,000 FEET WITH NO
SIGNIFICANT WEATHER AND/OR OBSTRUCTIONS TO VISIBILITY.

* - STATION DOES NOT REPORT WEATHER SUCH AS PRECIPITATION OR FOG.

+ - STATION NOT QUALITY CONTROLLED BY THE NATIONAL WEATHER SERVICE.
    USE DATA WITH CAUTION...ESPECIALLY DEWPOINT AND RELATIVE
    HUMIDITY OBSERVATIONS.

INZ001>003-010>013-019-020-201200-
NORTHWEST INDIANA

CITY           SKY/WX    TMP DP  RH WIND       PRES   REMARKS
GARY /AIRPORT/ CLOUDY    46  45  93 N7        30.11S FOG
KNOX *+        CLOUDY    52  52 100 NE8       30.08R
LA PORTE +     FOG       52  51  99 N5        30.09R VSB 1/2
MICHIGAN CITY+ CLOUDY    50  50 100 N5        30.10R FOG
MONTICELLO +   MOCLDY    59  57  96 CALM      30.07R FOG
RENSSELAER +   RAIN      55  52  88 NE3       30.09R
VALPARAISO     FOG       52  51  97 N6        30.11R VSB 3/4

$$

LMZ046-743>745-201200-
SOUTHERN LAKE MICHIGAN

STATION/POSITION TIME  TEMP    WIND        PRES    WAVE
                       AIR SEA DIR/SP/G            HT
                 (UTC) (F)     (DEG/KT/KT) (MB)    (FT)
BURNS HARBOR     1040   45     360/ 10/ 13 1019.3R
5NW MICH CITY    1100   46 52   20/ 10/ 14   N/A     2

$$

INZ004-005-014>016-021>024-201200-
NORTH CENTRAL INDIANA

CITY           SKY/WX    TMP DP  RH WIND       PRES   REMARKS
GOSHEN         CLOUDY    56  55  97 NE7       30.07R FOG
LOGANSPORT +   FAIR      55  55 100 CALM      30.07R FOG
PERU/GRISSOM   FAIR      56  56 100 NE5       30.05R
ROCHESTER +    CLOUDY    59  55  88 NE3       30.07R FOG
SOUTH BEND     CLOUDY    53  52  96 N3        30.09R FOG
WARSAW +       CLOUDY    55  55 100 NE8       30.07R FOG

$$

INZ006>009-017-018-025>027-201200-
NORTHEAST INDIANA

CITY           SKY/WX    TMP DP  RH WIND       PRES   REMARKS
ANGOLA *+      CLOUDY    57  54  88 NE6       30.07R
AUBURN +       CLOUDY    57  54  88 N7        30.08R
FORT WAYNE     CLOUDY    59  56  89 NE8       30.08R
HUNTINGTON +   CLOUDY    57  56  95 NE6       30.07R

$$

INZ028-029-035-036-043>045-051>053-201200-
WEST CENTRAL INDIANA

CITY           SKY/WX    TMP DP  RH WIND       PRES   REMARKS
CRAWFORDSVL +  FAIR      60  60 100 E5        30.06R FOG
GREENCASTLE +  MOCLDY    61  61 100 CALM      30.07R FOG
LAFAYETTE      CLOUDY    61  59  93 NE6       30.06R
TERRE HAUTE    FOG       60  60 100 SW3       30.06R VSB 1/2

$$

INZ030>032-037>040-046>048-054>057-064-065-201200-
CENTRAL INDIANA

CITY           SKY/WX    TMP DP  RH WIND       PRES   REMARKS
ANDERSON       FAIR      59  57  92 CALM      30.07R FOG
COLUMBUS       PTCLDY    63  59  88 S5        30.05  FOG
FISHERS *+     FAIR      61  61 100 CALM      30.07
FRANKFORT +    CLOUDY    63  60  89 SE7       30.08R FOG
GREENWOOD *+   FAIR      63  62  96 CALM      30.06R
INDIANAPOLIS   FAIR      64  61  90 NE7       30.05R FOG
-EAGLE CREEK   FAIR      64  59  83 CALM      30.06R HAZE
KOKOMO +       FAIR      58  56  93 NE3       30.08R FOG
MARION +       FAIR      56  55  97 CALM      30.07R FOG
MT COMFORT *+    N/A     61  61 100 CALM      30.07R
SHELBYVILLE    CLOUDY    65  63  93 CALM      30.05R FOG
ZIONSVILLE +   FAIR      60  59  96 NE5       30.07R FOG

$$

INZ033-034-041-042-049-050-058-059-201200-
EAST CENTRAL INDIANA

CITY           SKY/WX    TMP DP  RH WIND       PRES   REMARKS
MUNCIE         FAIR      60  57  89 CALM      30.06R FOG
RICHMOND +     FAIR      59  59 100 CALM      30.08R FOG

$$

INZ060-061-067>069-081>083-085>088-201200-
SOUTHWEST INDIANA

CITY           SKY/WX    TMP DP  RH WIND       PRES   REMARKS
EVANSVILLE     FAIR      65  64  97 W3        30.08R
HUNTINGBURG +  CLOUDY    65  63  93 S6        30.08R
WASHINGTON +   FAIR      65  63  93 S5        30.06R

$$

INZ062-063-066-070>080-084-089>092-201200-
SOUTH CENTRAL AND SOUTHEAST INDIANA

CITY           SKY/WX    TMP DP  RH WIND       PRES   REMARKS
BATESVILLE +   FOG       63  63 100 CALM      30.06R VSB 1/2
BEDFORD +      FAIR      63  59  88 S3        30.04R FOG
BLOOMINGTON    FAIR      61  60  97 CALM      30.07R
FRENCH LICK *+ FAIR      61 N/A N/A CALM      30.10R
MADISON *+     FAIR      64  63  94 CALM      30.09R
NORTH VERNON + FAIR      61  61 100 CALM      30.07R FOG
SEYMOUR +      FAIR      64  64 100 CALM      30.06R FOG

$$




USA.gov is the U.S. government's official web portal to all federal, state and local government web resources and services.